TimeMST,TemperatureF,Dew PointF,Humidity,Sea Level PressureIn,VisibilityMPH,Wind Direction,Wind SpeedMPH,Gust SpeedMPH,PrecipitationIn,Events,Conditions,WindDirDegrees,DateUTC
12:06 AM,24.1,19.9,84,29.86,1.5,West,17.3,-,0.00,Snow,Light Snow,260,2014-02-20 07:06:00
12:14 AM,24.1,19.9,84,29.86,3.0,West,12.7,-,0.00,Snow,Light Snow,270,2014-02-20 07:14:00
12:53 AM,24.1,15.1,69,29.97,10.0,WSW,11.5,-,0.00,,Mostly Cloudy,250,2014-02-20 07:53:00
1:53 AM,25.0,12.9,60,29.98,10.0,West,20.7,28.8,N/A,,Scattered Clouds,260,2014-02-20 08:53:00
2:53 AM,24.1,12.9,62,30.02,10.0,West,18.4,-,N/A,,Overcast,260,2014-02-20 09:53:00
3:53 AM,23.0,10.9,60,30.04,10.0,West,16.1,-,N/A,,Clear,260,2014-02-20 10:53:00
4:53 AM,23.0,10.9,60,30.05,10.0,WSW,18.4,-,N/A,,Clear,250,2014-02-20 11:53:00
5:53 AM,23.0,9.0,55,30.07,10.0,WSW,20.7,-,N/A,,Partly Cloudy,250,2014-02-20 12:53:00
6:53 AM,21.9,8.1,55,30.09,10.0,WSW,19.6,-,N/A,,Clear,240,2014-02-20 13:53:00
7:53 AM,21.9,9.0,58,30.09,10.0,West,12.7,-,N/A,,Clear,260,2014-02-20 14:53:00
8:53 AM,28.0,9.0,45,30.04,10.0,WSW,31.1,35.7,N/A,,Clear,240,2014-02-20 15:53:00
9:53 AM,28.0,9.0,45,30.04,10.0,SW,33.4,38.0,N/A,,Clear,230,2014-02-20 16:53:00
10:53 AM,33.1,9.0,37,30.01,10.0,SW,28.8,38.0,N/A,,Clear,220,2014-02-20 17:53:00
11:53 AM,33.1,8.1,35,29.98,10.0,SW,26.5,41.4,N/A,,Overcast,230,2014-02-20 18:53:00
12:53 PM,33.1,10.0,38,29.91,10.0,SW,32.2,42.6,N/A,,Overcast,220,2014-02-20 19:53:00
1:53 PM,32.0,12.9,45,29.88,10.0,SSW,34.5,44.9,N/A,,Overcast,210,2014-02-20 20:53:00
2:53 PM,32.0,15.1,50,29.88,5.0,SW,28.8,49.5,0.00,Snow,Light Snow,220,2014-02-20 21:53:00
3:53 PM,30.9,16.0,54,29.87,7.0,SW,28.8,46.0,0.00,,Overcast,220,2014-02-20 22:53:00
4:53 PM,30.9,16.0,54,29.84,8.0,SW,31.1,46.0,0.00,,Overcast,220,2014-02-20 23:53:00
5:40 PM,30.9,19.0,61,29.72,3.0,SW,34.5,47.2,0.00,Snow,Light Snow,220,2014-02-21 00:40:00
5:53 PM,32.0,19.0,59,29.81,6.0,SW,34.5,46.0,0.00,Snow,Light Snow,220,2014-02-21 00:53:00
6:53 PM,34.0,19.0,54,29.81,8.0,SW,27.6,46.0,0.00,Snow,Light Snow,220,2014-02-21 01:53:00
7:09 PM,33.1,19.0,56,29.71,8.0,SW,29.9,41.4,0.00,Snow,Light Snow,220,2014-02-21 02:09:00
7:23 PM,33.1,19.9,59,29.73,10.0,West,16.1,42.6,0.00,,Overcast,270,2014-02-21 02:23:00
7:53 PM,30.0,25.0,82,29.86,9.0,West,13.8,-,0.00,Snow,Light Snow,270,2014-02-21 02:53:00
8:53 PM,33.1,19.0,56,29.83,10.0,West,23.0,-,0.00,,Overcast,260,2014-02-21 03:53:00
9:53 PM,30.9,19.9,64,29.85,10.0,WSW,24.2,31.1,0.00,,Mostly Cloudy,250,2014-02-21 04:53:00
10:53 PM,30.9,19.9,64,29.86,9.0,West,18.4,-,0.00,Snow,Light Snow,260,2014-02-21 05:53:00
11:53 PM,30.0,19.0,64,29.84,10.0,WSW,26.5,34.5,0.00,,Partly Cloudy,250,2014-02-21 06:53:00